GRARBER Weather Reports


Display with metric or nautical units.
time (UTC)temp
F
wind
direction
speed
MPH
gust
MPH
rain 1hr
in
rain 24hr
in
rain mn
in
humidity
%
barometer
mb
20260904061655 54 250 24.0 32.0 0.00 0.00 0.00 93
20260904051656 52 240 22.0 29.0 0.00 0.00 0.00 99
20260904042059 52 260 24.0 36.0 0.00 0.00 0.00 99
20260904031656 54 270 23.0 30.0 0.00 0.00 0.00 93
20260904021657 54 260 26.0 35.0 0.00 0.00 0.00 87
20260904011957 54 260 26.0 35.0 0.00 0.00 0.00 87
20260904001656 54 250 26.0 33.0 0.00 0.00 0.00 81
20260903231656 54 250 28.0 35.0 0.00 0.00 0.00 81
20260903222058 54 270 29.0 36.0 0.00 0.00 0.00 81
20260903211655 54 270 28.0 36.0 0.00 0.00 0.00 81
20260903201656 54 250 26.0 0.0 0.00 0.00 0.00 81
20260903191856 54 260 28.0 35.0 0.00 0.00 0.00 81
20260903181656 52 260 22.0 29.0 0.00 0.00 0.00 93
20260903171711 50 250 23.0 0.0 0.00 0.00 0.00 99
20260903162025 52 260 20.0 0.0 0.00 0.00 0.00 93
20260903151657 54 270 18.0 29.0 0.00 0.00 0.00 81
20260903141656 57 260 18.0 25.0 0.00 0.00 0.00 67
20260903131856 57 230 16.0 25.0 0.00 0.00 0.00 71
20260903121656 55 240 15.0 22.0 0.00 0.00 0.00 71
20260903111655 55 260 16.0 28.0 0.00 0.00 0.00 66
20260903102057 55 230 14.0 24.0 0.00 0.00 0.00 71
20260903091655 54 250 18.0 28.0 0.00 0.00 0.00 76
20260903081654 52 250 22.0 31.0 0.00 0.00 0.00 76